When you browse on this site, cookies collect data to enhance your experience and personalize the content and advertising you see.
Visit our Privacy Policy to learn more. By continuing to use the site, you agree to this use of cookies and data.
  • In Hungary
  • List of Countries
  • For 7 days
  • Water Temperature
  • Satellite Maps
  • Weather Map
  • News
  • Weather Widgets
  • user-avatar
    Login

    Hourly Weather Vitrivka

    Today, 20 July, Saturday

    Time Temperature Precipitation Wind Pressure Humidity
    00:00 +16°C° 0 mm 2 mps 746 mmHg 84%
    01:00 +16°C° 0 mm 2 mps 747 mmHg 85%
    02:00 +16°C° 0 mm 2 mps 747 mmHg 83%
    03:00 +15°C° 0 mm 2 mps 747 mmHg 84%
    04:00 +15°C° 0 mm 2 mps 747 mmHg 85%
    05:00 +15°C° 0 mm 2 mps 747 mmHg 85%
    06:00 +17°C° 0 mm 2 mps 748 mmHg 80%
    07:00 +19°C° 0 mm 2 mps 748 mmHg 74%
    08:00 +21°C° 0 mm 2 mps 748 mmHg 68%
    09:00 +23°C° 0.1 mm 2 mps 748 mmHg 63%
    10:00 +25°C° 0.1 mm 2 mps 748 mmHg 57%
    11:00 +26°C° 0.1 mm 2 mps 748 mmHg 52%
    12:00 +27°C° 0 mm 2 mps 748 mmHg 50%
    13:00 +27°C° 0 mm 2 mps 748 mmHg 49%
    14:00 +27°C° 0 mm 2 mps 748 mmHg 47%
    15:00 +27°C° 0.3 mm 2 mps 748 mmHg 55%
    16:00 +26°C° 0.3 mm 2 mps 748 mmHg 62%
    17:00 +25°C° 0.3 mm 3 mps 748 mmHg 70%
    18:00 +22°C° 0.1 mm 3 mps 748 mmHg 74%
    19:00 +21°C° 0.1 mm 3 mps 748 mmHg 77%
    20:00 +20°C° 0.1 mm 2 mps 747 mmHg 80%
    21:00 +19°C° 0 mm 2 mps 748 mmHg 81%
    22:00 +18°C° 0 mm 2 mps 748 mmHg 82%
    23:00 +17°C° 0 mm 2 mps 748 mmHg 82%

    Tomorrow, 21 July, Sunday

    Time Temperature Precipitation Wind Pressure Humidity
    00:00 +17°C° 0 mm 2 mps 748 mmHg 83%
    01:00 +17°C° 0 mm 2 mps 748 mmHg 84%
    02:00 +17°C° 0 mm 2 mps 748 mmHg 85%
    03:00 +17°C° 0 mm 2 mps 748 mmHg 87%
    04:00 +16°C° 0 mm 1 mps 747 mmHg 89%
    05:00 +16°C° 0 mm 1 mps 747 mmHg 92%
    06:00 +19°C° 0 mm 1 mps 747 mmHg 86%
    07:00 +19°C° 0 mm 0 mps 747 mmHg 81%
    08:00 +21°C° 0 mm 0 mps 747 mmHg 75%
    09:00 +24°C° 0 mm 1 mps 747 mmHg 70%
    10:00 +26°C° 0 mm 1 mps 747 mmHg 64%
    11:00 +27°C° 0 mm 1 mps 747 mmHg 59%
    12:00 +28°C° 0.1 mm 2 mps 747 mmHg 57%
    13:00 +28°C° 0.1 mm 2 mps 747 mmHg 55%
    14:00 +29°C° 0.1 mm 2 mps 747 mmHg 52%
    15:00 +29°C° 0 mm 2 mps 746 mmHg 53%
    16:00 +29°C° 0 mm 1 mps 746 mmHg 54%
    17:00 +29°C° 0 mm 1 mps 746 mmHg 55%
    18:00 +27°C° 0.3 mm 1 mps 746 mmHg 63%
    19:00 +25°C° 0.3 mm 2 mps 746 mmHg 71%
    20:00 +23°C° 0.3 mm 2 mps 746 mmHg 80%
    21:00 +21°C° 0 mm 2 mps 746 mmHg 82%
    22:00 +20°C° 0 mm 2 mps 746 mmHg 85%
    23:00 +20°C° 0 mm 2 mps 746 mmHg 87%

    Day after tomorrow, 22 July, Monday

    Time Temperature Precipitation Wind Pressure Humidity
    00:00 +19°C° 0 mm 2 mps 746 mmHg 88%
    01:00 +19°C° 0 mm 2 mps 746 mmHg 90%
    02:00 +20°C° 0 mm 1 mps 746 mmHg 91%
    03:00 +19°C° 0.1 mm 2 mps 745 mmHg 92%
    04:00 +19°C° 0.1 mm 2 mps 745 mmHg 92%
    05:00 +19°C° 0.1 mm 2 mps 745 mmHg 93%
    06:00 +20°C° 0.1 mm 2 mps 745 mmHg 90%
    07:00 +21°C° 0.1 mm 2 mps 745 mmHg 87%
    08:00 +22°C° 0.1 mm 3 mps 745 mmHg 85%
    09:00 +22°C° 0.3 mm 3 mps 745 mmHg 83%
    10:00 +22°C° 0.3 mm 4 mps 745 mmHg 81%
    11:00 +23°C° 0.3 mm 4 mps 745 mmHg 79%
    12:00 +23°C° 0.5 mm 5 mps 745 mmHg 77%
    13:00 +25°C° 0.5 mm 5 mps 745 mmHg 76%
    14:00 +25°C° 0.5 mm 5 mps 745 mmHg 75%
    15:00 +25°C° 0.3 mm 5 mps 745 mmHg 76%
    16:00 +23°C° 0.3 mm 6 mps 744 mmHg 77%
    17:00 +23°C° 0.3 mm 6 mps 744 mmHg 78%
    18:00 +22°C° 0 mm 5 mps 744 mmHg 81%
    19:00 +21°C° 0 mm 4 mps 744 mmHg 85%
    20:00 +20°C° 0 mm 4 mps 744 mmHg 88%
    21:00 +19°C° 0 mm 3 mps 745 mmHg 90%
    22:00 +18°C° 0 mm 3 mps 745 mmHg 93%
    23:00 +18°C° 0 mm 3 mps 745 mmHg 95%

    23 July, Tuesday

    Time Temperature Precipitation Wind Pressure Humidity
    00:00 +17°C° 0 mm 3 mps 745 mmHg 95%
    01:00 +17°C° 0 mm 3 mps 744 mmHg 96%
    02:00 +17°C° 0 mm 3 mps 744 mmHg 96%
    03:00 +17°C° 0 mm 4 mps 744 mmHg 95%
    04:00 +17°C° 0 mm 4 mps 744 mmHg 94%
    05:00 +16°C° 0 mm 5 mps 744 mmHg 93%
    06:00 +16°C° 0 mm 5 mps 744 mmHg 91%
    07:00 +16°C° 0 mm 5 mps 744 mmHg 89%
    08:00 +16°C° 0 mm 5 mps 744 mmHg 87%
    09:00 +16°C° 0 mm 5 mps 744 mmHg 85%
    10:00 +17°C° 0 mm 5 mps 744 mmHg 83%
    11:00 +19°C° 0 mm 5 mps 744 mmHg 81%
    12:00 +19°C° 0 mm 5 mps 744 mmHg 79%
    13:00 +19°C° 0 mm 5 mps 743 mmHg 78%
    14:00 +20°C° 0 mm 5 mps 743 mmHg 76%
    15:00 +20°C° 0 mm 5 mps 743 mmHg 76%
    16:00 +19°C° 0 mm 5 mps 743 mmHg 76%
    17:00 +19°C° 0 mm 4 mps 743 mmHg 76%
    18:00 +18°C° 0 mm 4 mps 742 mmHg 80%
    19:00 +17°C° 0 mm 3 mps 742 mmHg 84%
    20:00 +16°C° 0 mm 3 mps 742 mmHg 88%
    21:00 +16°C° 0 mm 2 mps 742 mmHg 89%
    22:00 +16°C° 0 mm 2 mps 742 mmHg 91%
    23:00 +16°C° 0 mm 2 mps 742 mmHg 92%

    24 July, Wednesday

    Time Temperature Precipitation Wind Pressure Humidity
    00:00 +15°C° 0 mm 2 mps 742 mmHg 93%
    01:00 +15°C° 0 mm 1 mps 742 mmHg 95%
    02:00 +15°C° 0 mm 1 mps 742 mmHg 96%
    03:00 +15°C° 0 mm 1 mps 742 mmHg 96%
    04:00 +15°C° 0 mm 1 mps 742 mmHg 96%
    05:00 +14°C° 0 mm 0 mps 742 mmHg 95%
    06:00 +15°C° 0 mm 0 mps 742 mmHg 91%
    07:00 +16°C° 0 mm 0 mps 742 mmHg 87%
    08:00 +17°C° 0 mm 0 mps 742 mmHg 83%
    09:00 +19°C° 0 mm 0 mps 743 mmHg 78%
    10:00 +22°C° 0 mm 1 mps 743 mmHg 73%
    11:00 +23°C° 0 mm 1 mps 743 mmHg 68%
    12:00 +23°C° 0.2 mm 2 mps 743 mmHg 69%
    13:00 +23°C° 0.2 mm 2 mps 743 mmHg 70%
    14:00 +24°C° 0.2 mm 3 mps 743 mmHg 71%
    15:00 +22°C° 0.3 mm 3 mps 744 mmHg 74%
    16:00 +22°C° 0.3 mm 3 mps 744 mmHg 77%
    17:00 +21°C° 0.3 mm 3 mps 744 mmHg 81%
    18:00 +20°C° 0.3 mm 3 mps 744 mmHg 85%
    19:00 +19°C° 0.3 mm 3 mps 744 mmHg 90%
    20:00 +18°C° 0.3 mm 2 mps 744 mmHg 95%
    21:00 +18°C° 0 mm 2 mps 744 mmHg 95%
    22:00 +18°C° 0 mm 2 mps 744 mmHg 96%
    23:00 +17°C° 0 mm 2 mps 744 mmHg 97%

    25 July, Thursday

    Time Temperature Precipitation Wind Pressure Humidity
    00:00 +18°C° 0.2 mm 2 mps 744 mmHg 97%
    01:00 +18°C° 0.2 mm 3 mps 744 mmHg 96%
    02:00 +18°C° 0.2 mm 3 mps 745 mmHg 96%
    03:00 +17°C° 0 mm 3 mps 745 mmHg 96%
    04:00 +17°C° 0 mm 4 mps 745 mmHg 96%
    05:00 +17°C° 0 mm 4 mps 745 mmHg 96%
    06:00 +17°C° 0 mm 4 mps 745 mmHg 94%
    07:00 +18°C° 0 mm 4 mps 745 mmHg 92%
    08:00 +19°C° 0 mm 5 mps 745 mmHg 90%
    09:00 +19°C° 0 mm 5 mps 746 mmHg 89%
    10:00 +20°C° 0 mm 5 mps 746 mmHg 87%
    11:00 +21°C° 0 mm 5 mps 746 mmHg 85%
    12:00 +22°C° 0.1 mm 5 mps 746 mmHg 79%
    13:00 +25°C° 0.1 mm 4 mps 746 mmHg 73%
    14:00 +26°C° 0.1 mm 4 mps 746 mmHg 67%
    15:00 +26°C° 0.4 mm 5 mps 746 mmHg 69%
    16:00 +25°C° 0.4 mm 5 mps 746 mmHg 71%
    17:00 +25°C° 0.4 mm 5 mps 746 mmHg 74%
    18:00 +23°C° 0.1 mm 5 mps 746 mmHg 77%
    19:00 +21°C° 0.1 mm 4 mps 747 mmHg 81%
    20:00 +20°C° 0.1 mm 3 mps 747 mmHg 84%
    21:00 +19°C° 0 mm 3 mps 747 mmHg 86%
    22:00 +19°C° 0 mm 3 mps 747 mmHg 88%
    23:00 +18°C° 0 mm 3 mps 747 mmHg 90%
    Show more